timestamp,wind_dir_avg,wind_spd_max_dir,wind_spd_avg,wind_spd_gust,battery_voltage,lat,long
2019-02-07 00:00:00+00:00,31.0,33.0,8.43,9.23,,47.59359,-54.27349
2019-02-07 00:10:00+00:00,14.0,18.0,9.37,10.99,,47.59359,-54.27349
2019-02-07 00:20:00+00:00,18.0,16.0,9.44,11.07,,47.59359,-54.27349
2019-02-07 00:30:00+00:00,12.0,12.0,10.69,11.94,,47.59359,-54.27349
2019-02-07 00:40:00+00:00,16.0,15.0,9.85,11.1,,47.59359,-54.27349
2019-02-07 00:50:00+00:00,20.0,20.0,8.96,10.24,,47.59359,-54.27349
2019-02-07 01:00:00+00:00,28.0,25.0,10.19,11.64,,47.59359,-54.27349
2019-02-07 01:10:00+00:00,16.0,12.0,10.64,12.64,,47.59359,-54.27349
2019-02-07 01:20:00+00:00,26.0,28.0,11.6,13.4,,47.59359,-54.27349
2019-02-07 01:30:00+00:00,30.0,33.0,11.3,13.64,,47.59359,-54.27349
2019-02-07 01:40:00+00:00,25.0,25.0,9.93,11.62,,47.59359,-54.27349
2019-02-07 01:50:00+00:00,22.0,29.0,10.1,12.24,,47.59359,-54.27349
2019-02-07 02:00:00+00:00,16.0,13.0,9.95,11.48,,47.59359,-54.27349
2019-02-07 02:10:00+00:00,32.0,31.0,9.92,11.36,,47.59359,-54.27349
2019-02-07 02:20:00+00:00,37.0,36.0,10.85,12.21,,47.59359,-54.27349
2019-02-07 02:30:00+00:00,33.0,38.0,10.53,12.17,,47.59359,-54.27349
2019-02-07 02:40:00+00:00,38.0,36.0,9.32,10.7,,47.59359,-54.27349
2019-02-07 02:50:00+00:00,44.0,51.0,8.48,11.05,,47.59359,-54.27349
2019-02-07 03:00:00+00:00,46.0,41.0,8.89,9.94,,47.59359,-54.27349
2019-02-07 03:10:00+00:00,33.0,33.0,7.55,8.65,,47.59359,-54.27349
2019-02-07 03:20:00+00:00,36.0,43.0,8.4,10.2,,47.59359,-54.27349
2019-02-07 03:30:00+00:00,54.0,56.0,9.74,11.19,,47.59359,-54.27349
2019-02-07 03:40:00+00:00,51.0,46.0,8.58,10.01,,47.59359,-54.27349
2019-02-07 03:50:00+00:00,40.0,41.0,10.36,12.03,,47.59359,-54.27349
2019-02-07 04:00:00+00:00,51.0,52.0,9.15,10.55,,47.59359,-54.27349
2019-02-07 04:10:00+00:00,47.0,52.0,9.18,10.23,,47.59359,-54.27349
2019-02-07 04:20:00+00:00,42.0,51.0,8.24,9.63,,47.59359,-54.27349
2019-02-07 04:30:00+00:00,55.0,54.0,7.56,8.72,,47.59359,-54.27349
2019-02-07 04:40:00+00:00,69.0,72.0,10.83,12.06,,47.59359,-54.27349
2019-02-07 04:50:00+00:00,66.0,60.0,8.69,9.88,,47.59359,-54.27349
2019-02-07 05:00:00+00:00,67.0,72.0,8.55,10.14,,47.59359,-54.27349
2019-02-07 05:10:00+00:00,59.0,61.0,8.53,9.98,,47.59359,-54.27349
2019-02-07 05:20:00+00:00,70.0,70.0,7.68,8.81,,47.59359,-54.27349
2019-02-07 05:30:00+00:00,70.0,74.0,6.39,7.64,,47.59359,-54.27349
2019-02-07 05:40:00+00:00,61.0,67.0,5.52,7.08,,47.59359,-54.27349
2019-02-07 05:50:00+00:00,79.0,88.0,6.27,7.71,,47.59359,-54.27349
2019-02-07 06:00:00+00:00,79.0,85.0,5.99,7.28,,47.59359,-54.27349
2019-02-07 06:10:00+00:00,70.0,71.0,8.13,9.37,,47.59359,-54.27349
2019-02-07 06:20:00+00:00,65.0,61.0,7.36,8.29,,47.59359,-54.27349
2019-02-07 06:30:00+00:00,61.0,67.0,9.0,10.81,,47.59359,-54.27349
2019-02-07 06:40:00+00:00,70.0,74.0,9.62,11.28,,47.59359,-54.27349
2019-02-07 06:50:00+00:00,62.0,66.0,7.43,9.05,,47.59359,-54.27349
2019-02-07 07:00:00+00:00,72.0,75.0,7.66,8.81,,47.59359,-54.27349
2019-02-07 07:10:00+00:00,55.0,51.0,8.37,9.34,,47.59359,-54.27349
2019-02-07 07:20:00+00:00,59.0,60.0,7.19,7.81,,47.59359,-54.27349
2019-02-07 07:30:00+00:00,56.0,53.0,8.15,9.32,,47.59359,-54.27349
2019-02-07 07:40:00+00:00,69.0,69.0,8.61,9.79,,47.59359,-54.27349
2019-02-07 07:50:00+00:00,53.0,55.0,8.21,9.28,,47.59359,-54.27349
2019-02-07 08:00:00+00:00,61.0,66.0,7.06,8.1,,47.59359,-54.27349
2019-02-07 08:10:00+00:00,46.0,52.0,5.36,7.0,,47.59359,-54.27349
2019-02-07 08:20:00+00:00,62.0,55.0,5.71,7.15,,47.59359,-54.27349
2019-02-07 08:30:00+00:00,53.0,54.0,7.15,8.04,,47.59359,-54.27349
2019-02-07 08:40:00+00:00,57.0,55.0,6.69,8.23,,47.59359,-54.27349
2019-02-07 08:50:00+00:00,52.0,52.0,6.86,7.61,,47.59359,-54.27349
2019-02-07 09:00:00+00:00,61.0,62.0,6.57,7.73,,47.59359,-54.27349
2019-02-07 09:10:00+00:00,62.0,59.0,6.23,7.24,,47.59359,-54.27349
2019-02-07 09:20:00+00:00,60.0,66.0,4.06,5.21,,47.59359,-54.27349
2019-02-07 09:30:00+00:00,67.0,70.0,3.79,4.53,,47.59359,-54.27349
2019-02-07 09:40:00+00:00,65.0,61.0,5.6,6.33,,47.59359,-54.27349
2019-02-07 09:50:00+00:00,73.0,75.0,4.87,5.36,,47.59359,-54.27349
2019-02-07 10:00:00+00:00,64.0,54.0,4.37,4.82,,47.59359,-54.27349
2019-02-07 10:10:00+00:00,67.0,61.0,4.77,5.53,,47.59359,-54.27349
2019-02-07 10:20:00+00:00,64.0,56.0,4.41,5.1,,47.59359,-54.27349
2019-02-07 10:30:00+00:00,57.0,54.0,4.7,5.42,,47.59359,-54.27349
2019-02-07 10:40:00+00:00,71.0,74.0,5.59,7.41,,47.59359,-54.27349
2019-02-07 10:50:00+00:00,74.0,70.0,6.78,7.65,,47.59359,-54.27349
2019-02-07 11:00:00+00:00,75.0,69.0,6.8,7.59,,47.59359,-54.27349
2019-02-07 11:10:00+00:00,80.0,80.0,5.37,6.66,,47.59359,-54.27349
2019-02-07 11:20:00+00:00,73.0,74.0,4.59,5.21,,47.59359,-54.27349
2019-02-07 11:30:00+00:00,84.0,86.0,5.44,6.56,,47.59359,-54.27349
2019-02-07 11:40:00+00:00,72.0,75.0,4.92,5.66,,47.59359,-54.27349
2019-02-07 11:50:00+00:00,85.0,85.0,6.14,7.58,,47.59359,-54.27349
2019-02-07 12:00:00+00:00,84.0,80.0,5.81,6.86,,47.59359,-54.27349
2019-02-07 12:10:00+00:00,79.0,74.0,6.7,7.19,,47.59359,-54.27349
2019-02-07 12:20:00+00:00,78.0,80.0,6.58,7.86,,47.59359,-54.27349
2019-02-07 12:30:00+00:00,80.0,78.0,5.91,6.8,,47.59359,-54.27349
2019-02-07 12:40:00+00:00,79.0,82.0,6.31,6.93,,47.59359,-54.27349
2019-02-07 12:50:00+00:00,81.0,79.0,5.8,6.61,,47.59359,-54.27349
2019-02-07 13:00:00+00:00,68.0,69.0,4.66,5.87,,47.59359,-54.27349
2019-02-07 13:10:00+00:00,60.0,55.0,4.89,5.6,,47.59359,-54.27349
2019-02-07 13:20:00+00:00,69.0,80.0,4.88,5.77,,47.59359,-54.27349
2019-02-07 13:30:00+00:00,71.0,71.0,5.47,6.88,,47.59359,-54.27349
2019-02-07 13:40:00+00:00,73.0,76.0,5.92,6.66,,47.59359,-54.27349
2019-02-07 13:50:00+00:00,65.0,63.0,6.05,6.69,,47.59359,-54.27349
2019-02-07 14:00:00+00:00,71.0,71.0,5.54,6.37,,47.59359,-54.27349
2019-02-07 14:10:00+00:00,63.0,62.0,5.31,5.91,,47.59359,-54.27349
2019-02-07 14:20:00+00:00,68.0,64.0,5.47,6.07,,47.59359,-54.27349
2019-02-07 14:30:00+00:00,70.0,69.0,4.89,5.87,,47.59359,-54.27349
2019-02-07 14:40:00+00:00,66.0,69.0,4.15,4.78,,47.59359,-54.27349
2019-02-07 14:50:00+00:00,57.0,56.0,4.28,4.83,,47.59359,-54.27349
2019-02-07 15:00:00+00:00,55.0,51.0,3.94,4.72,,47.59359,-54.27349
2019-02-07 15:10:00+00:00,70.0,71.0,4.21,4.54,,47.59359,-54.27349
2019-02-07 15:20:00+00:00,64.0,69.0,4.37,5.27,,47.59359,-54.27349
2019-02-07 15:30:00+00:00,55.0,59.0,3.89,4.37,,47.59359,-54.27349
2019-02-07 15:40:00+00:00,57.0,66.0,4.15,4.74,,47.59359,-54.27349
2019-02-07 15:50:00+00:00,59.0,59.0,4.56,5.85,,47.59359,-54.27349
2019-02-07 16:00:00+00:00,67.0,71.0,4.44,5.0,,47.59359,-54.27349
2019-02-07 16:10:00+00:00,67.0,72.0,4.87,5.58,,47.59359,-54.27349
2019-02-07 16:20:00+00:00,74.0,71.0,4.96,5.44,,47.59359,-54.27349
2019-02-07 16:30:00+00:00,76.0,75.0,4.76,5.21,,47.59359,-54.27349
2019-02-07 16:40:00+00:00,75.0,75.0,5.03,5.79,,47.59359,-54.27349
2019-02-07 16:50:00+00:00,77.0,76.0,5.08,5.63,,47.59359,-54.27349
2019-02-07 17:00:00+00:00,77.0,77.0,5.01,5.63,,47.59359,-54.27349
2019-02-07 17:10:00+00:00,83.0,85.0,4.54,5.22,,47.59359,-54.27349
2019-02-07 17:20:00+00:00,86.0,90.0,4.51,5.03,,47.59359,-54.27349
2019-02-07 17:30:00+00:00,74.0,75.0,3.82,4.43,,47.59359,-54.27349
2019-02-07 17:40:00+00:00,80.0,71.0,2.85,3.45,,47.59359,-54.27349
2019-02-07 17:50:00+00:00,64.0,69.0,3.1,3.62,,47.59359,-54.27349
2019-02-07 18:00:00+00:00,67.0,72.0,2.1,2.51,,47.59359,-54.27349
2019-02-07 18:10:00+00:00,75.0,74.0,1.99,2.69,,47.59359,-54.27349
2019-02-07 18:20:00+00:00,57.0,62.0,2.13,2.66,,47.59359,-54.27349
2019-02-07 18:30:00+00:00,42.0,47.0,1.62,2.13,,47.59359,-54.27349
2019-02-07 18:40:00+00:00,56.0,52.0,2.11,2.52,,47.59359,-54.27349
2019-02-07 18:50:00+00:00,96.0,89.0,1.36,1.96,,47.59359,-54.27349
2019-02-07 19:00:00+00:00,104.0,121.0,1.4,2.2,,47.59359,-54.27349
2019-02-07 19:10:00+00:00,83.0,83.0,1.94,2.5,,47.59359,-54.27349
2019-02-07 19:20:00+00:00,98.0,74.0,1.04,1.74,,47.59359,-54.27349
2019-02-07 19:30:00+00:00,113.0,135.0,1.09,1.61,,47.59359,-54.27349
2019-02-07 19:40:00+00:00,142.0,141.0,1.96,2.49,,47.59359,-54.27349
2019-02-07 19:50:00+00:00,76.0,83.0,1.81,2.17,,47.59359,-54.27349
2019-02-07 20:00:00+00:00,80.0,90.0,0.87,1.24,,47.59359,-54.27349
2019-02-07 20:10:00+00:00,75.0,73.0,0.98,1.44,,47.59359,-54.27349
2019-02-07 20:20:00+00:00,78.0,62.0,0.82,1.04,,47.59359,-54.27349
2019-02-07 20:30:00+00:00,88.0,83.0,0.99,1.3,,47.59359,-54.27349
2019-02-07 20:40:00+00:00,90.0,93.0,1.64,1.84,,47.59359,-54.27349
2019-02-07 20:50:00+00:00,89.0,85.0,1.69,2.18,,47.59359,-54.27349
2019-02-07 21:00:00+00:00,86.0,84.0,2.03,2.43,,47.59359,-54.27349
2019-02-07 21:10:00+00:00,83.0,78.0,2.87,3.68,,47.59359,-54.27349
2019-02-07 21:20:00+00:00,88.0,87.0,2.11,3.31,,47.59359,-54.27349
2019-02-07 21:30:00+00:00,87.0,86.0,3.61,4.81,,47.59359,-54.27349
2019-02-07 21:40:00+00:00,88.0,88.0,3.9,4.72,,47.59359,-54.27349
2019-02-07 21:50:00+00:00,87.0,88.0,2.98,3.99,,47.59359,-54.27349
2019-02-07 22:00:00+00:00,100.0,94.0,2.0,3.33,,47.59359,-54.27349
2019-02-07 22:10:00+00:00,107.0,122.0,1.91,2.8,,47.59359,-54.27349
2019-02-07 22:20:00+00:00,119.0,131.0,2.0,2.65,,47.59359,-54.27349
2019-02-07 22:30:00+00:00,113.0,114.0,1.84,2.45,,47.59359,-54.27349
2019-02-07 22:40:00+00:00,107.0,113.0,1.34,2.01,,47.59359,-54.27349
2019-02-07 22:50:00+00:00,105.0,99.0,1.45,2.07,,47.59359,-54.27349
2019-02-07 23:00:00+00:00,130.0,145.0,2.27,2.91,,47.59359,-54.27349
2019-02-07 23:10:00+00:00,130.0,131.0,2.43,3.09,,47.59359,-54.27349
2019-02-07 23:20:00+00:00,110.0,109.0,1.91,2.49,,47.59359,-54.27349
2019-02-07 23:30:00+00:00,107.0,103.0,1.14,1.52,,47.59359,-54.27349
2019-02-07 23:40:00+00:00,123.0,134.0,1.5,2.42,,47.59359,-54.27349
2019-02-07 23:50:00+00:00,130.0,143.0,1.89,2.9,,47.59359,-54.27349
